Retour au catalogue

STARLINK-36761

ActifCommunicationsVLEO
NORAD 67867·PAYLOAD·🇺🇸 United States

Lancé Feb 20, 2026 depuis Vandenberg Space Force Base

Loading…

Prochains Passages (prochaines 24 heures)

TLE

FraisSource: CelesTrak SupGP

Époque: Sep 15, 2026, 03:57 UTC

1 67867C 26034T   26258.16506944  .00017641  00000+0  52122-3 0  2588
2 67867  53.1596  42.8105 0001008  79.1585 298.0284 15.34381752    12

Suivez STARLINK-36761 en temps réel avec AllMySat

Download on the App Store